Regional Weather Roundup
Issued by NWS

Home | Current Version | Previous Version | Text Only | Print | Product List | Glossary Off
Versions: 1 2 3 4 5 6 7 8 9 10 11 12 13 14 15 16 17 18 19 20 21 22 23 24 25 26 27 28 29 30 31 32 33 34 35 36 37 38 39 40 41 42 43 44 45 46 47 48 49 50

000
ASUS45 KCYS 310510
RWRWY

WYOMING REGIONAL WEATHER ROUNDUP
NATIONAL WEATHER SERVICE CHEYENNE WY
1100 PM MDT THU JUL 30 2015

NOTE:  "FAIR" INDICATES FEW OR NO CLOUDS BELOW 12,000 FEET
WITH NO SIGNIFICANT WEATHER AND/OR OBSTRUCTIONS TO VISIBILITY.

WYZ001-310600-
YELLOWSTONE NATIONAL PARK

CITY           SKY/WX    TMP DP  RH WIND       PRES   REMARKS
LK YELLOWSTONE   N/A     50  34  54 NW3       30.53S
W YELLOWSTONE  NOT AVBL

$$
WYZ002>013-054>058-071-098>099-310600-
NORTHERN WYOMING

CITY           SKY/WX    TMP DP  RH WIND       PRES   REMARKS
JACKSON        FAIR      54  43  66 N3        30.42R
CODY           FAIR      66  36  32 SW3       30.32S
GREYBULL       FAIR      75  35  23 VRB5      30.21S
WORLAND        FAIR      68  28  22 S8        30.24R
SHERIDAN       FAIR      61  47  59 CALM      30.26R
BUFFALO        FAIR      66  40  38 W7        30.34R
GILLETTE       FAIR      58  41  53 SW3       30.28R
HULETT         FAIR      68  37  32 CALM      30.29S
NEWCASTLE      FAIR      63  41  45 CALM      30.28S

$$
WYZ014>020-022>026-101>103-310600-
CENTRAL WYOMING

CITY           SKY/WX    TMP DP  RH WIND       PRES   REMARKS
BIG PINEY      FAIR      55  29  36 N8        30.44R
PINEDALE       FAIR      54  32  43 NW7       30.45S
DUBOIS         FAIR      59  28  31 SW12      30.47R
LANDER         FAIR      69  31  24 W15       30.32R
RIVERTON       FAIR      70  24  17 N5        30.32R
CASPER         FAIR      67  36  31 NE9       30.32S
DOUGLAS        FAIR      63  42  46 E5        30.33R

$$
WYZ021-027>030-104>119-310600-
SOUTHERN WYOMING

CITY           SKY/WX    TMP DP  RH WIND       PRES   REMARKS
EVANSTON       FAIR      66  25  21 N6        30.45R
KEMMERER       FAIR      61  28  29 NW13      30.46S
FORT BRIDGER   CLEAR     63  21  20 W7        30.46S
ROCK SPRINGS   FAIR      71  14  11 NW3       30.39S
DIXON          FAIR      62  23  22 E10       30.40S
RAWLINS        FAIR      59  22  24 N5        30.41S
SARATOGA       FAIR      54  25  32 CALM      30.42F
LARAMIE        FAIR      64  37  36 SE13      30.45S
CHEYENNE       FAIR      65  54  67 S6        30.40S
TORRINGTON     FAIR      67  45  45 E7        30.27R
PINE BLUFFS    FAIR      61  54  77 CALM      30.35S

$$


USA.gov is the U.S. government's official web portal to all federal, state and local government web resources and services.